SCP
0 0 0 -0 0 0 0 0 0 0 0 0 0 0 0 0 0 -0 -0 -0 0 0 0 -0 0 0 0 0 0 0 0 0 0 0 0 0 0 0 0 0 0 0 0 0
0 0 0 -0 -0 -0 0 0 0 0 0 0 -0 0 0 0 -0 0 -0 -0 -0 -0 -0 -0 0 0 0 0 0 0 0 0 0 0 0 0 0 0 0 0 0 0 0 0
-0 -0 0 0 -0 -0 -0 -0 0 0 0 0 -0 0 0 0 0 0 0 0 -0 -0 0 0 0 0 0 0 0 0 0 0 0 0 0 0 0 0 0 0 0 0 0 0
0 -0 -0 0 0 -0 -0 -0 -0 0 0 0 0 0 -0 0 0 0 0 -0 0 0 0 0 0 0 0 0 0 0 0 0 0 0 0 0 0 0 0 0 0 0 0 0
0 -0 -0 -0 0 0 -0 -0 -0 0 -0 -0 0 -0 -0 0 0 0 0 0 0 0 0 0 0 0 0 0 0 0 0 0 0 0 0 0 0 0 0 0 0 0 0 0
0 -0 -0 -0 -0 -0 -0 -0 0 0 0 0 -0 0 0 0 0 0 0 0 0 0 0 0 0 0 0 0 0 0 0 0 0 0 0 0 0 0 0 0 0 0 0 0
0 0 -0 -0 -0 0 -0 0 -0 -0 0 0 0 0 0 0 0 0 0 0 0 0 0 0 0 0 0 0 0 0 0 0 0 0 0 0 0 0 0 0 0 0 0 0
0 0 -0 -0 -0 -0 0 -0 0 0 0 0 0 0 0 0 0 0 0 0 0 0 0 0 0 0 0 0 0 0 0 0 0 0 0 0 0 0 0 0 0 0 0 0
0 0 0 0 0 0 0 0 0 0 0 0 0 0 -0 0 0 0 0 0 0 0 0 0 0 0 0 0 0 0 0 0 0 0 0 0 0 0 0 0 0 0 0 0
0 0 0 0 -0 0 0 -0 -0 0 0 0 0 0 -0 -0 -0 0 0 0 0 0 0 0 0 0 0 0 0 0 0 0 0 0 0 0 0 0 0 0 0 0 0 0
0 0 0 0 0 0 0 0 0 0 0 0 0 0 0 -0 0 0 0 0 0 0 0 0 0 0 0 0 0 0 0 0 0 0 0 0 0 0 0 0 0 0 0 0
0 0 0 0 0 0 -0 -0 -0 -0 -0 0 0 0 0 0 0 0 0 0 0 0 0 0 0 0 0 0 0 0 0 0 0 0 0 0 0 0 0 0 0 0 0 0
0 0 0 0 -0 0 -0 -0 -0 -0 -0 -0 0 0 0 -0 -0 -0 -0 0 0 0 0 0 0 0 0 0 0 0 0 0 0 0 0 0 0 0 0 0 0 0 0 0
0 0 -0 0 0 0 0 0 -0 -0 -0 0 0 0 0 0 0 0 0 0 0 0 0 0 0 0 0 0 0 0 0 0 0 0 0 0 0 0 0 0 0 0 0 0
0 0 -0 -0 0 0 0 0 0 0 0 0 0 0 0 0 0 0 0 0 0 0 0 0 0 0 0 0 0 0 0 0 0 0 0 0 0 0 0 0 0 0 0 0
0 0 0 0 0 0 0 0 0 0 0 0 0 0 0 0 0 0 0 0 0 0 0 0 0 0 0 0 0 0 0 0 0 0 0 0 0 0 0 0 0 0 0 0
0 0 0 0 0 0 0 0 0 0 0 0 0 0 0 0 0 0 0 0 0 0 0 0 0 0 0 0 0 0 0 0 0 0 0 0 0 0 0 0 0 0 0 0
-0 0 0 0 0 0 0 0 0 0 0 0 0 0 0 0 0 0 0 0 0 0 0 0 0 0 0 0 0 0 0 0 0 0 0 0 0 0 0 0 0 0 0 0
-0 -0 0 0 0 0 0 0 0 0 0 0 0 0 0 0 0 0 0 0 0 0 0 0 0 0 0 0 0 0 0 0 0 0 0 0 0 0 0 0 0 0 0 0
0 0 0 0 0 0 0 0 0 0 0 0 0 0 0 0 0 0 0 0 0 0 0 0 0 0 0 0 0 0 0 0 0 0 0 0 0 0 0 0 0 0 0 0
0 0 0 0 0 0 0 0 0 0 0 0 0 0 0 0 0 0 0 0 0 0 0 0 0 0 0 0 0 0 0 0 0 0 0 0 0 0 0 0 0 0 0 0
0 0 0 0 0 0 -0 0 0 0 0 0 0 0 0 0 0 0 -0 0 0 0 0 0 0 0 0 0 0 0 0 0 0 0 0 0 0 0 0 0 0 0 0 0
0 0 0 0 0 -0 -0 0 0 0 0 0 0 0 0 -0 -0 0 0 0 0 0 0 0 0 0 0 0 0 0 0 0 0 0 0 0 0 0 0 0 0 0 0 0
0 0 0 0 -0 0 0 0 0 -0 -0 -0 -0 0 0 0 0 -0 -0 0 0 0 0 0 0 0 0 0 0 0 0 0 0 0 0 0 0 0 0 0 0 0 0 0
0 0 0 0 0 0 0 0 0 0 0 -0 -0 -0 -0 -0 -0 0 0 0 0 0 0 0 0 0 0 0 0 0 0 0 0 0 0 0 0 0 0 0 0 0 0 0
0 0 0 -0 -0 -0 0 0 -0 -0 0 0 -0 -0 -0 -0 -0 -0 -0 -0 -0 0 0 0 0 0 0 0 0 0 0 0 0 0 0 0 0 0 0 0 0 0 0 0
0 0 0 -0 -0 -0 -0 -0 -0 -0 -0 -0 -0 -0 -0 -0 -0 -0 -0 -0 0 0 0 0 0 0 0 0 0 0 0 0 0 0 0 0 0 0 0 0 0 0 0 0
Wind_Speed_500mb
30 27 24 25 28 24 38 47 28 44 56 67 52 42 50 59 53 46 59 59 47 50 48 35 41 55 59 59 59 58 64 69 77 84 82 76 75 72 69 71 71 69 67 66
13 30 30 37 36 39 45 39 37 62 66 72 76 54 52 52 57 72 80 82 70 69 67 57 45 50 56 56 58 62 68 69 67 70 71 73 72 71 70 69 68 68 69 67
14 17 22 23 46 43 47 46 40 38 72 78 56 49 56 57 61 71 76 77 89 82 83 79 58 49 58 59 56 57 59 62 62 63 67 70 69 70 69 68 66 64 62 60
7 2 20 25 14 27 40 44 48 55 68 72 69 89 67 69 75 83 81 77 88 96 102 98 78 63 53 56 59 57 54 54 56 59 61 61 62 62 61 60 60 59 58 58
9 14 29 42 32 22 20 41 40 53 66 72 111 50 78 110 109 103 82 94 103 96 83 80 81 64 66 63 65 65 65 62 60 58 57 58 57 56 56 56 56 55 54 53
7 10 15 55 5 30 26 37 37 39 55 64 80 28 52 114 86 104 105 118 111 111 92 86 86 64 66 69 70 73 70 64 61 56 54 54 54 54 53 53 52 52 51 48
25 14 22 35 13 10 18 45 23 41 67 69 43 51 117 93 82 78 91 100 103 105 106 105 101 94 73 78 82 77 68 65 64 62 60 57 55 54 55 55 55 53 51 49
14 17 33 6 22 33 18 49 43 48 49 53 55 82 109 96 97 93 97 92 94 92 92 89 95 96 82 87 84 82 74 75 74 70 67 65 64 62 61 60 59 57 55 53
17 12 30 18 26 17 29 34 45 54 65 61 68 79 73 73 83 86 81 87 98 95 98 93 87 88 87 94 88 83 84 83 79 76 72 68 66 65 64 63 62 63 61 59
17 37 33 41 5 27 51 49 54 51 63 65 66 75 81 68 62 64 74 78 83 86 88 89 86 83 78 86 86 90 94 90 86 84 79 74 70 66 65 67 69 69 67 63
18 19 50 20 25 51 72 59 65 71 65 67 66 78 68 66 61 56 52 55 56 64 71 71 73 80 82 83 91 96 97 94 89 85 82 75 70 68 68 68 68 67 64 61
14 30 20 49 53 78 58 65 66 74 92 73 63 73 69 64 56 52 45 44 39 42 53 54 58 67 68 74 86 91 96 95 94 90 84 77 71 67 63 60 61 60 55 54
19 52 58 70 67 37 62 65 69 73 66 73 75 69 64 62 48 39 32 31 28 28 32 37 43 46 51 62 73 83 88 90 87 84 80 73 69 67 65 64 60 62 61 59
31 34 25 19 37 60 54 56 57 59 53 52 54 53 51 46 36 26 24 20 14 15 14 18 27 34 40 49 57 65 73 76 76 76 74 70 67 67 71 75 74 69 64 60
22 38 38 42 47 47 46 47 52 50 50 44 37 37 34 31 23 17 15 10 7 2 5 8 14 23 31 38 42 49 56 61 63 65 66 64 66 71 74 75 73 73 73 69
48 37 28 30 40 44 47 48 51 52 50 47 38 31 26 23 20 16 10 3 5 10 11 10 7 8 15 21 32 37 44 48 52 56 61 64 69 72 78 74 71 71 71 69
37 36 46 48 51 51 49 45 43 44 44 44 43 35 23 20 22 24 23 22 18 18 14 10 10 3 5 9 12 22 29 35 41 50 57 66 72 71 70 68 68 69 69 61
24 24 23 28 39 49 49 45 43 39 40 38 39 38 37 40 41 35 29 27 27 25 22 19 11 7 4 3 5 9 16 23 32 40 49 57 62 63 62 62 63 63 64 62
20 22 22 25 33 38 39 42 40 40 38 38 40 39 39 42 44 39 31 29 34 35 39 30 18 9 3 1 3 6 10 16 24 35 43 48 51 51 54 57 61 63 60 56
22 23 24 27 31 34 36 36 37 39 42 41 38 40 44 46 40 39 40 46 47 42 35 32 28 23 19 13 5 4 8 12 18 25 31 38 42 46 49 51 53 53 49 48
25 28 30 30 30 32 34 38 41 45 45 45 43 44 44 39 41 37 38 42 40 35 32 30 28 26 22 18 14 11 10 10 11 14 18 24 30 36 40 43 45 45 45 44
22 25 27 29 31 32 35 37 38 38 43 43 44 44 41 40 40 39 43 41 36 30 29 27 24 21 18 14 10 7 3 5 8 13 19 25 30 34 37 39 41 42 42 41
21 24 26 26 29 30 31 33 36 40 42 42 44 43 45 45 43 46 43 42 40 37 33 30 27 23 19 16 14 12 12 12 13 17 20 24 26 30 34 38 42 46 50 54
17 19 21 23 25 25 28 32 33 33 34 35 37 40 42 40 36 39 39 39 37 36 36 35 33 32 29 26 22 21 21 24 26 29 32 35 39 43 47 51 53 55 57 58
18 20 21 22 26 30 32 34 34 34 34 37 38 40 41 43 46 46 45 43 43 43 42 41 39 37 35 33 32 32 32 32 33 35 38 41 43 46 49 51 52 54 55 56
16 19 22 26 28 30 32 34 37 40 41 39 39 42 42 43 44 46 47 48 48 47 46 46 45 44 44 43 42 41 41 41 42 44 45 48 49 51 53 54 55 57 59 60
14 16 17 19 23 28 33 37 40 43 46 49 49 49 51 51 51 52 52 52 52 52 52 51 50 49 49 49 48 48 48 48 48 50 51 52 53 55 56 57 58 59 61 61
Wind_Direction_500mb
253 285 296 263 271 266 242 234 228 242 245 260 253 253 260 266 280 290 283 281 285 305 313 304 264 247 243 244 241 239 239 237 234 234 236 236 235 235 234 234 235 236 237 238
243 248 255 261 255 256 234 234 261 252 258 258 264 274 265 263 262 265 268 278 290 292 293 289 281 258 251 247 243 239 237 236 234 231 230 230 231 230 230 231 232 234 235 238
263 223 237 254 243 240 245 240 222 251 247 267 274 264 263 266 265 266 268 270 281 287 287 285 278 277 259 251 245 241 237 233 230 228 227 227 227 227 228 229 231 232 233 235
244 3 251 243 269 241 240 235 232 244 260 265 260 263 269 267 261 261 265 271 275 279 281 281 277 279 263 245 240 236 229 225 223 223 223 224 225 226 226 227 228 230 232 233
244 236 286 288 251 228 240 263 235 240 254 263 270 287 270 258 253 258 262 267 267 271 275 274 276 267 257 245 238 235 232 226 221 217 216 216 218 220 222 224 224 225 227 228
228 251 260 261 341 216 233 276 236 240 254 261 271 265 260 263 256 254 252 254 259 265 267 262 263 268 257 245 237 231 224 220 215 210 210 213 215 217 220 222 223 223 221 220
231 239 264 273 152 222 215 255 324 259 255 259 261 250 263 275 271 261 258 258 259 263 267 263 262 264 255 245 239 232 221 216 213 211 212 213 215 218 220 220 219 219 219 221
230 224 258 55 212 221 324 319 352 351 318 326 304 279 271 269 268 265 262 262 262 264 266 265 263 260 248 243 242 231 221 218 216 214 212 212 213 213 215 217 216 217 218 219
217 221 261 32 96 50 359 335 329 331 317 319 309 304 305 299 279 274 268 264 267 264 262 263 262 260 250 246 235 230 221 219 218 218 216 215 215 214 214 216 217 218 217 216
282 257 281 318 192 347 348 331 323 321 315 313 311 307 307 304 299 280 272 271 273 271 265 262 257 258 251 242 238 232 223 220 219 218 214 212 214 217 220 220 219 218 215 211
271 282 329 228 10 348 331 327 322 315 317 314 312 307 308 309 310 299 289 285 271 266 265 262 258 252 247 238 232 228 223 222 218 216 215 213 215 219 220 223 225 221 216 211
278 343 309 294 312 325 325 324 321 320 313 311 311 307 312 307 301 301 300 292 279 267 266 258 249 245 242 237 230 226 221 218 216 213 212 212 214 214 216 221 221 214 211 207
278 302 295 289 301 305 316 317 317 313 309 309 308 309 309 305 301 301 298 288 283 271 261 253 244 240 237 229 225 224 222 219 215 213 213 212 211 211 212 209 205 199 196 197
293 318 306 301 313 319 319 320 319 310 299 304 309 309 305 300 298 304 316 304 298 273 256 249 240 227 222 220 219 221 220 218 218 217 215 213 213 213 213 209 199 195 194 194
310 320 289 294 308 320 330 335 335 328 325 315 321 326 325 318 325 340 316 317 313 300 122 163 199 203 208 210 210 214 217 218 216 217 218 217 215 212 210 206 201 198 190 189
321 324 325 324 334 342 349 352 348 344 347 345 340 345 351 0 10 24 28 52 190 115 99 114 143 179 197 205 208 211 212 219 220 218 215 212 211 209 207 203 199 197 195 192
324 333 340 346 348 352 359 358 352 354 358 9 13 6 354 37 57 64 60 60 67 76 75 77 76 60 183 183 204 219 217 216 216 214 211 209 207 204 205 204 199 196 196 192
313 321 329 336 346 355 0 2 1 5 8 17 28 34 40 41 40 45 55 67 69 75 76 70 68 58 60 116 174 193 206 205 209 212 212 210 208 206 205 202 199 197 193 190
335 342 356 7 7 6 4 2 8 15 20 24 31 34 40 47 46 43 45 52 56 57 50 53 61 50 32 81 193 190 195 205 211 211 208 206 206 207 204 201 199 196 194 192
2 8 14 23 21 11 10 12 17 23 28 31 31 34 38 40 39 40 39 46 48 45 41 42 44 51 59 64 79 195 207 200 200 201 200 198 201 203 201 201 198 196 194 194
14 14 17 23 31 26 19 14 18 24 26 28 28 33 35 38 42 39 40 41 39 36 28 29 32 37 41 48 55 81 108 134 154 165 181 186 190 194 196 196 200 203 207 210
16 16 18 22 24 22 20 18 19 20 23 24 25 27 31 36 35 30 29 28 25 23 21 17 16 19 19 19 18 30 66 143 171 178 189 194 199 201 204 209 214 217 222 227
13 14 16 19 21 21 19 20 20 19 18 17 16 17 20 18 16 14 16 15 12 8 5 5 3 359 351 338 328 311 291 272 248 235 229 228 230 230 231 233 236 240 244 248
13 14 15 15 14 12 16 19 20 19 16 13 10 8 8 11 12 6 3 360 356 355 354 353 350 344 338 331 321 307 293 283 274 268 264 259 257 255 254 253 253 253 253 252
12 12 11 8 7 9 11 10 9 9 11 10 6 6 4 1 358 356 353 351 348 346 345 343 339 335 330 324 318 311 303 293 285 277 272 269 266 264 262 261 260 260 260 259
2 0 359 1 4 5 5 1 0 357 354 355 356 352 350 348 344 342 341 339 338 336 334 333 331 327 323 319 315 309 302 297 292 288 283 278 274 270 269 268 266 265 264 263
354 356 1 1 357 356 352 349 347 346 345 342 341 340 338 336 334 332 330 329 327 326 323 321 319 317 314 311 308 305 302 299 296 293 288 284 281 280 278 276 273 269 267 265
Wind_Speed_850mb
30 27 24 25 28 24 38 47 28 44 56 67 52 42 50 59 53 46 59 59 47 50 48 35 41 55 59 59 59 58 64 69 77 84 82 76 75 72 69 71 71 69 67 66
13 30 30 37 36 39 45 39 37 62 66 72 76 54 52 52 57 72 80 82 70 69 67 57 45 50 56 56 58 62 68 69 67 70 71 73 72 71 70 69 68 68 69 67
14 17 22 23 46 43 47 46 40 38 72 78 56 49 56 57 61 71 76 77 89 82 83 79 58 49 58 59 56 57 59 62 62 63 67 70 69 70 69 68 66 64 62 60
7 2 20 25 14 27 40 44 48 55 68 72 69 89 67 69 75 83 81 77 88 96 102 98 78 63 53 56 59 57 54 54 56 59 61 61 62 62 61 60 60 59 58 58
9 14 29 42 32 22 20 41 40 53 66 72 111 50 78 110 109 103 82 94 103 96 83 80 81 64 66 63 65 65 65 62 60 58 57 58 57 56 56 56 56 55 54 53
7 10 15 55 5 30 26 37 37 39 55 64 80 28 52 114 86 104 105 118 111 111 92 86 86 64 66 69 70 73 70 64 61 56 54 54 54 54 53 53 52 52 51 48
25 14 22 35 13 10 18 45 23 41 67 69 43 51 117 93 82 78 91 100 103 105 106 105 101 94 73 78 82 77 68 65 64 62 60 57 55 54 55 55 55 53 51 49
14 17 33 6 22 33 18 49 43 48 49 53 55 82 109 96 97 93 97 92 94 92 92 89 95 96 82 87 84 82 74 75 74 70 67 65 64 62 61 60 59 57 55 53
17 12 30 18 26 17 29 34 45 54 65 61 68 79 73 73 83 86 81 87 98 95 98 93 87 88 87 94 88 83 84 83 79 76 72 68 66 65 64 63 62 63 61 59
17 37 33 41 5 27 51 49 54 51 63 65 66 75 81 68 62 64 74 78 83 86 88 89 86 83 78 86 86 90 94 90 86 84 79 74 70 66 65 67 69 69 67 63
18 19 50 20 25 51 72 59 65 71 65 67 66 78 68 66 61 56 52 55 56 64 71 71 73 80 82 83 91 96 97 94 89 85 82 75 70 68 68 68 68 67 64 61
14 30 20 49 53 78 58 65 66 74 92 73 63 73 69 64 56 52 45 44 39 42 53 54 58 67 68 74 86 91 96 95 94 90 84 77 71 67 63 60 61 60 55 54
19 52 58 70 67 37 62 65 69 73 66 73 75 69 64 62 48 39 32 31 28 28 32 37 43 46 51 62 73 83 88 90 87 84 80 73 69 67 65 64 60 62 61 59
31 34 25 19 37 60 54 56 57 59 53 52 54 53 51 46 36 26 24 20 14 15 14 18 27 34 40 49 57 65 73 76 76 76 74 70 67 67 71 75 74 69 64 60
22 38 38 42 47 47 46 47 52 50 50 44 37 37 34 31 23 17 15 10 7 2 5 8 14 23 31 38 42 49 56 61 63 65 66 64 66 71 74 75 73 73 73 69
48 37 28 30 40 44 47 48 51 52 50 47 38 31 26 23 20 16 10 3 5 10 11 10 7 8 15 21 32 37 44 48 52 56 61 64 69 72 78 74 71 71 71 69
37 36 46 48 51 51 49 45 43 44 44 44 43 35 23 20 22 24 23 22 18 18 14 10 10 3 5 9 12 22 29 35 41 50 57 66 72 71 70 68 68 69 69 61
24 24 23 28 39 49 49 45 43 39 40 38 39 38 37 40 41 35 29 27 27 25 22 19 11 7 4 3 5 9 16 23 32 40 49 57 62 63 62 62 63 63 64 62
20 22 22 25 33 38 39 42 40 40 38 38 40 39 39 42 44 39 31 29 34 35 39 30 18 9 3 1 3 6 10 16 24 35 43 48 51 51 54 57 61 63 60 56
22 23 24 27 31 34 36 36 37 39 42 41 38 40 44 46 40 39 40 46 47 42 35 32 28 23 19 13 5 4 8 12 18 25 31 38 42 46 49 51 53 53 49 48
25 28 30 30 30 32 34 38 41 45 45 45 43 44 44 39 41 37 38 42 40 35 32 30 28 26 22 18 14 11 10 10 11 14 18 24 30 36 40 43 45 45 45 44
22 25 27 29 31 32 35 37 38 38 43 43 44 44 41 40 40 39 43 41 36 30 29 27 24 21 18 14 10 7 3 5 8 13 19 25 30 34 37 39 41 42 42 41
21 24 26 26 29 30 31 33 36 40 42 42 44 43 45 45 43 46 43 42 40 37 33 30 27 23 19 16 14 12 12 12 13 17 20 24 26 30 34 38 42 46 50 54
17 19 21 23 25 25 28 32 33 33 34 35 37 40 42 40 36 39 39 39 37 36 36 35 33 32 29 26 22 21 21 24 26 29 32 35 39 43 47 51 53 55 57 58
18 20 21 22 26 30 32 34 34 34 34 37 38 40 41 43 46 46 45 43 43 43 42 41 39 37 35 33 32 32 32 32 33 35 38 41 43 46 49 51 52 54 55 56
16 19 22 26 28 30 32 34 37 40 41 39 39 42 42 43 44 46 47 48 48 47 46 46 45 44 44 43 42 41 41 41 42 44 45 48 49 51 53 54 55 57 59 60
14 16 17 19 23 28 33 37 40 43 46 49 49 49 51 51 51 52 52 52 52 52 52 51 50 49 49 49 48 48 48 48 48 50 51 52 53 55 56 57 58 59 61 61
Wind_Direction_850mb
253 285 296 263 271 266 242 234 228 242 245 260 253 253 260 266 280 290 283 281 285 305 313 304 264 247 243 244 241 239 239 237 234 234 236 236 235 235 234 234 235 236 237 238
243 248 255 261 255 256 234 234 261 252 258 258 264 274 265 263 262 265 268 278 290 292 293 289 281 258 251 247 243 239 237 236 234 231 230 230 231 230 230 231 232 234 235 238
263 223 237 254 243 240 245 240 222 251 247 267 274 264 263 266 265 266 268 270 281 287 287 285 278 277 259 251 245 241 237 233 230 228 227 227 227 227 228 229 231 232 233 235
244 3 251 243 269 241 240 235 232 244 260 265 260 263 269 267 261 261 265 271 275 279 281 281 277 279 263 245 240 236 229 225 223 223 223 224 225 226 226 227 228 230 232 233
244 236 286 288 251 228 240 263 235 240 254 263 270 287 270 258 253 258 262 267 267 271 275 274 276 267 257 245 238 235 232 226 221 217 216 216 218 220 222 224 224 225 227 228
228 251 260 261 341 216 233 276 236 240 254 261 271 265 260 263 256 254 252 254 259 265 267 262 263 268 257 245 237 231 224 220 215 210 210 213 215 217 220 222 223 223 221 220
231 239 264 273 152 222 215 255 324 259 255 259 261 250 263 275 271 261 258 258 259 263 267 263 262 264 255 245 239 232 221 216 213 211 212 213 215 218 220 220 219 219 219 221
230 224 258 55 212 221 324 319 352 351 318 326 304 279 271 269 268 265 262 262 262 264 266 265 263 260 248 243 242 231 221 218 216 214 212 212 213 213 215 217 216 217 218 219
217 221 261 32 96 50 359 335 329 331 317 319 309 304 305 299 279 274 268 264 267 264 262 263 262 260 250 246 235 230 221 219 218 218 216 215 215 214 214 216 217 218 217 216
282 257 281 318 192 347 348 331 323 321 315 313 311 307 307 304 299 280 272 271 273 271 265 262 257 258 251 242 238 232 223 220 219 218 214 212 214 217 220 220 219 218 215 211
271 282 329 228 10 348 331 327 322 315 317 314 312 307 308 309 310 299 289 285 271 266 265 262 258 252 247 238 232 228 223 222 218 216 215 213 215 219 220 223 225 221 216 211
278 343 309 294 312 325 325 324 321 320 313 311 311 307 312 307 301 301 300 292 279 267 266 258 249 245 242 237 230 226 221 218 216 213 212 212 214 214 216 221 221 214 211 207
278 302 295 289 301 305 316 317 317 313 309 309 308 309 309 305 301 301 298 288 283 271 261 253 244 240 237 229 225 224 222 219 215 213 213 212 211 211 212 209 205 199 196 197
293 318 306 301 313 319 319 320 319 310 299 304 309 309 305 300 298 304 316 304 298 273 256 249 240 227 222 220 219 221 220 218 218 217 215 213 213 213 213 209 199 195 194 194
310 320 289 294 308 320 330 335 335 328 325 315 321 326 325 318 325 340 316 317 313 300 122 163 199 203 208 210 210 214 217 218 216 217 218 217 215 212 210 206 201 198 190 189
321 324 325 324 334 342 349 352 348 344 347 345 340 345 351 0 10 24 28 52 190 115 99 114 143 179 197 205 208 211 212 219 220 218 215 212 211 209 207 203 199 197 195 192
324 333 340 346 348 352 359 358 352 354 358 9 13 6 354 37 57 64 60 60 67 76 75 77 76 60 183 183 204 219 217 216 216 214 211 209 207 204 205 204 199 196 196 192
313 321 329 336 346 355 0 2 1 5 8 17 28 34 40 41 40 45 55 67 69 75 76 70 68 58 60 116 174 193 206 205 209 212 212 210 208 206 205 202 199 197 193 190
335 342 356 7 7 6 4 2 8 15 20 24 31 34 40 47 46 43 45 52 56 57 50 53 61 50 32 81 193 190 195 205 211 211 208 206 206 207 204 201 199 196 194 192
2 8 14 23 21 11 10 12 17 23 28 31 31 34 38 40 39 40 39 46 48 45 41 42 44 51 59 64 79 195 207 200 200 201 200 198 201 203 201 201 198 196 194 194
14 14 17 23 31 26 19 14 18 24 26 28 28 33 35 38 42 39 40 41 39 36 28 29 32 37 41 48 55 81 108 134 154 165 181 186 190 194 196 196 200 203 207 210
16 16 18 22 24 22 20 18 19 20 23 24 25 27 31 36 35 30 29 28 25 23 21 17 16 19 19 19 18 30 66 143 171 178 189 194 199 201 204 209 214 217 222 227
13 14 16 19 21 21 19 20 20 19 18 17 16 17 20 18 16 14 16 15 12 8 5 5 3 359 351 338 328 311 291 272 248 235 229 228 230 230 231 233 236 240 244 248
13 14 15 15 14 12 16 19 20 19 16 13 10 8 8 11 12 6 3 360 356 355 354 353 350 344 338 331 321 307 293 283 274 268 264 259 257 255 254 253 253 253 253 252
12 12 11 8 7 9 11 10 9 9 11 10 6 6 4 1 358 356 353 351 348 346 345 343 339 335 330 324 318 311 303 293 285 277 272 269 266 264 262 261 260 260 260 259
2 0 359 1 4 5 5 1 0 357 354 355 356 352 350 348 344 342 341 339 338 336 334 333 331 327 323 319 315 309 302 297 292 288 283 278 274 270 269 268 266 265 264 263
354 356 1 1 357 356 352 349 347 346 345 342 341 340 338 336 334 332 330 329 327 326 323 321 319 317 314 311 308 305 302 299 296 293 288 284 281 280 278 276 273 269 267 265